SAS4759 ENGM-EDDM

Flight info

Callsign SAS4759
Flight time N/A
Altitude 37000
Route OKSAT L996 KELIN DCT NEDIK DCT SODRO/N0409F310 T703 LULAR/N0397F300 T105 LANDU LANDU2A
Aircraft A320/M-SDE3FGHIJ1RWXYZ/ALB1

Departure

Time 2026-04-30 12:29
Airport Oslo-Gardermoen International Airport (ENGM)

Arrival

Time N/A
Airport Munich Airport (EDDM)
Time Latitude Longitude Altitude Speed Heading
2026-04-30 12:06 60.19757 11.10279 678 ft 0 kts 286°
2026-04-30 12:20 60.19753 11.10310 674 ft 4 kts 287°
2026-04-30 12:20 60.19745 11.10362 677 ft 4 kts 289°
2026-04-30 12:20 60.19735 11.10412 676 ft 4 kts 296°
2026-04-30 12:20 60.19721 11.10456 673 ft 4 kts 326°
2026-04-30 12:21 60.19708 11.10466 680 ft 0 kts 16°
2026-04-30 12:23 60.19708 11.10467 680 ft 0 kts 16°
2026-04-30 12:23 60.19715 11.10470 678 ft 2 kts 15°
2026-04-30 12:24 60.19734 11.10480 680 ft 4 kts 14°
2026-04-30 12:24 60.19764 11.10495 680 ft 5 kts 14°
2026-04-30 12:24 60.19806 11.10524 678 ft 7 kts 17°
2026-04-30 12:24 60.19861 11.10555 680 ft 9 kts 16°
2026-04-30 12:25 60.19928 11.10596 677 ft 11 kts 22°
2026-04-30 12:25 60.19944 11.10729 680 ft 11 kts 101°
2026-04-30 12:25 60.19922 11.10892 678 ft 13 kts 106°
2026-04-30 12:25 60.19895 11.11076 677 ft 15 kts 106°
2026-04-30 12:26 60.19865 11.11290 680 ft 17 kts 107°
2026-04-30 12:26 60.19855 11.11510 679 ft 12 kts 54°
2026-04-30 12:26 60.19937 11.11571 682 ft 14 kts 17°
2026-04-30 12:26 60.20035 11.11631 682 ft 16 kts 17°
2026-04-30 12:27 60.20141 11.11692 683 ft 15 kts 21°
2026-04-30 12:27 60.20175 11.11857 683 ft 14 kts 94°
2026-04-30 12:27 60.20138 11.12050 679 ft 16 kts 107°
2026-04-30 12:27 60.20077 11.12209 679 ft 14 kts 184°
2026-04-30 12:28 60.19985 11.12163 680 ft 14 kts 194°
2026-04-30 12:28 60.19975 11.12158 680 ft 0 kts 195°
2026-04-30 12:28 60.19974 11.12157 680 ft 1 kts 195°
2026-04-30 12:28 60.19876 11.12099 680 ft 41 kts 196°
2026-04-30 12:29 60.19389 11.11819 682 ft 103 kts 197°
2026-04-30 12:29 60.18524 11.11331 674 ft 152 kts 196°
2026-04-30 12:29 60.17447 11.10673 1081 ft 158 kts 198°
2026-04-30 12:29 60.16391 11.10029 1599 ft 165 kts 197°
2026-04-30 12:30 60.15221 11.09374 1910 ft 184 kts 196°
2026-04-30 12:30 60.13900 11.08952 2191 ft 205 kts 176°
2026-04-30 12:30 60.12540 11.09915 2400 ft 234 kts 144°
2026-04-30 12:30 60.11296 11.12402 2843 ft 257 kts 131°
2026-04-30 12:31 60.10103 11.15111 3684 ft 263 kts 131°
2026-04-30 12:31 60.08868 11.17848 4557 ft 267 kts 133°
2026-04-30 12:31 60.07581 11.20558 5450 ft 270 kts 134°
2026-04-30 12:31 60.06249 11.23264 6324 ft 273 kts 135°
2026-04-30 12:32 60.05054 11.26241 7132 ft 277 kts 124°
2026-04-30 12:32 60.03954 11.29384 7982 ft 280 kts 126°
2026-04-30 12:32 60.02825 11.32622 8722 ft 286 kts 118°
2026-04-30 12:32 60.02303 11.36449 9456 ft 290 kts 92°
2026-04-30 12:33 60.02609 11.40454 10174 ft 294 kts 69°
2026-04-30 12:33 60.03662 11.44041 10521 ft 313 kts 47°
2026-04-30 12:33 60.05236 11.47227 10820 ft 330 kts 44°
2026-04-30 12:33 60.06850 11.50586 11430 ft 336 kts 51°
2026-04-30 12:34 60.08065 11.54614 12083 ft 340 kts 67°
2026-04-30 12:34 60.08696 11.59185 12734 ft 344 kts 83°
2026-04-30 12:34 60.08689 11.63987 13391 ft 347 kts 98°
2026-04-30 12:34 60.08082 11.68693 14035 ft 351 kts 108°
2026-04-30 12:35 60.07328 11.73362 14672 ft 354 kts 108°
2026-04-30 12:35 60.06558 11.78056 15288 ft 357 kts 108°
2026-04-30 12:35 60.05779 11.82782 15876 ft 360 kts 108°
2026-04-30 12:35 60.04990 11.87577 16465 ft 363 kts 108°
2026-04-30 12:36 60.04148 11.92326 17022 ft 366 kts 115°
2026-04-30 12:36 60.02768 11.96635 17572 ft 369 kts 132°
2026-04-30 12:36 60.00822 11.99980 18118 ft 372 kts 149°
2026-04-30 12:36 59.98447 12.02084 18666 ft 375 kts 165°
2026-04-30 12:37 59.95882 12.02747 19223 ft 377 kts 181°
2026-04-30 12:37 59.93241 12.02465 19789 ft 380 kts 184°
2026-04-30 12:37 59.90593 12.02156 20339 ft 383 kts 184°
2026-04-30 12:37 59.87921 12.01852 20869 ft 386 kts 184°
2026-04-30 12:38 59.85237 12.01547 21376 ft 388 kts 184°
2026-04-30 12:38 59.82516 12.01237 21874 ft 391 kts 184°
2026-04-30 12:38 59.79797 12.00935 22360 ft 394 kts 183°
2026-04-30 12:38 59.77049 12.00630 22839 ft 397 kts 183°
2026-04-30 12:39 59.74268 12.00321 23309 ft 400 kts 183°
2026-04-30 12:39 59.71518 12.00013 23767 ft 403 kts 184°
2026-04-30 12:39 59.68706 11.99698 24208 ft 406 kts 184°
2026-04-30 12:39 59.65841 11.99374 24648 ft 409 kts 184°
2026-04-30 12:40 59.62994 11.99051 25069 ft 411 kts 184°
2026-04-30 12:40 59.60165 11.98734 25470 ft 414 kts 183°
2026-04-30 12:40 59.57244 11.98412 25877 ft 416 kts 183°
2026-04-30 12:40 59.54368 11.98096 26266 ft 419 kts 183°
2026-04-30 12:41 59.51462 11.97775 26642 ft 421 kts 183°
2026-04-30 12:41 59.48521 11.97447 27000 ft 424 kts 183°
2026-04-30 12:41 59.45542 11.97118 27358 ft 426 kts 183°
2026-04-30 12:41 59.42573 11.96790 27713 ft 428 kts 183°
2026-04-30 12:42 59.39594 11.96459 28056 ft 430 kts 183°
2026-04-30 12:42 59.36601 11.96126 28396 ft 433 kts 184°
2026-04-30 12:42 59.33617 11.95791 28721 ft 435 kts 184°
2026-04-30 12:42 59.30584 11.95453 29048 ft 437 kts 183°
2026-04-30 12:43 59.27547 11.95123 29373 ft 439 kts 183°
2026-04-30 12:43 59.24503 11.94799 29697 ft 441 kts 183°
2026-04-30 12:43 59.21419 11.94476 30023 ft 443 kts 183°
2026-04-30 12:43 59.18325 11.94148 30307 ft 446 kts 183°
2026-04-30 12:44 59.15239 11.93811 30595 ft 448 kts 183°
2026-04-30 12:44 59.12118 11.93466 30882 ft 449 kts 183°
2026-04-30 12:44 59.10042 11.93237 31164 ft 449 kts 183°
2026-04-30 12:44 59.06931 11.92900 31566 ft 448 kts 183°
2026-04-30 12:45 59.03823 11.92570 31965 ft 447 kts 183°
2026-04-30 12:45 59.00718 11.92241 32368 ft 446 kts 183°
2026-04-30 12:45 58.97618 11.91907 32759 ft 445 kts 183°
2026-04-30 12:45 58.93531 11.91466 33276 ft 444 kts 183°
2026-04-30 12:46 58.91469 11.91247 33535 ft 443 kts 183°
2026-04-30 12:46 58.88369 11.90921 33908 ft 443 kts 183°
2026-04-30 12:46 58.85299 11.90600 34275 ft 442 kts 183°
2026-04-30 12:46 58.82240 11.90301 34624 ft 441 kts 181°
2026-04-30 12:47 58.79182 11.90638 34960 ft 441 kts 172°
2026-04-30 12:47 58.76149 11.91464 35271 ft 440 kts 172°
2026-04-30 12:47 58.73142 11.92296 35564 ft 440 kts 172°
2026-04-30 12:47 58.70082 11.93142 35866 ft 439 kts 172°
2026-04-30 12:48 58.67065 11.93974 36159 ft 439 kts 172°
2026-04-30 12:48 58.64046 11.94798 36431 ft 438 kts 172°
2026-04-30 12:48 58.61020 11.95610 36692 ft 438 kts 172°
2026-04-30 12:48 58.58000 11.96412 36902 ft 438 kts 172°
2026-04-30 12:49 58.51940 11.98032 37010 ft 440 kts 172°
2026-04-30 12:49 58.45875 11.99666 37009 ft 441 kts 172°
2026-04-30 12:50 58.39829 12.01289 37009 ft 441 kts 172°
2026-04-30 12:50 58.33734 12.02925 37009 ft 440 kts 172°
2026-04-30 12:51 58.27689 12.04529 37010 ft 441 kts 172°
2026-04-30 12:51 58.21600 12.05433 37015 ft 440 kts 180°
2026-04-30 12:52 58.15466 12.05441 37016 ft 441 kts 180°
2026-04-30 12:52 58.09353 12.05461 37018 ft 441 kts 180°
2026-04-30 12:53 58.03206 12.05480 37021 ft 441 kts 180°
2026-04-30 12:53 57.97059 12.05490 37024 ft 441 kts 180°
2026-04-30 12:54 57.90918 12.05508 37027 ft 442 kts 180°
2026-04-30 12:54 57.84765 12.05538 37031 ft 441 kts 180°
2026-04-30 12:55 57.78630 12.05568 37027 ft 441 kts 180°
2026-04-30 12:55 57.72475 12.05579 37028 ft 441 kts 180°
2026-04-30 12:56 57.66350 12.05592 37028 ft 441 kts 180°
2026-04-30 12:56 57.60235 12.05602 37031 ft 442 kts 180°
2026-04-30 12:57 57.54085 12.05630 37032 ft 442 kts 180°
2026-04-30 12:57 57.47954 12.05659 37037 ft 442 kts 180°
2026-04-30 12:58 57.41803 12.05680 37032 ft 442 kts 180°
2026-04-30 12:58 57.35664 12.05702 37031 ft 441 kts 180°
2026-04-30 12:59 57.29518 12.05715 37031 ft 441 kts 180°
2026-04-30 12:59 57.23645 12.05730 37030 ft 441 kts 180°
2026-04-30 13:00 57.17914 12.05737 37029 ft 441 kts 180°
2026-04-30 13:00 57.11788 12.05751 37028 ft 441 kts 180°
2026-04-30 13:01 57.05657 12.05774 37027 ft 441 kts 180°
2026-04-30 13:01 56.99568 12.05799 37029 ft 440 kts 180°
2026-04-30 13:02 56.93425 12.05817 37026 ft 440 kts 180°
2026-04-30 13:02 56.87269 12.05836 37026 ft 440 kts 180°
2026-04-30 13:03 56.81172 12.05856 37026 ft 440 kts 180°
2026-04-30 13:03 56.75012 12.05873 37026 ft 440 kts 180°
2026-04-30 13:04 56.68925 12.05894 37026 ft 440 kts 180°
2026-04-30 13:04 56.62783 12.05910 37026 ft 440 kts 180°
2026-04-30 13:05 56.56672 12.05929 37028 ft 440 kts 180°
2026-04-30 13:06 56.47434 12.05950 37029 ft 440 kts 180°
2026-04-30 13:06 56.41348 12.05971 37026 ft 440 kts 180°
2026-04-30 13:07 56.35200 12.05988 37009 ft 445 kts 180°
2026-04-30 13:07 56.28928 12.06005 37010 ft 455 kts 180°
2026-04-30 13:08 56.22671 12.06016 37009 ft 459 kts 180°
2026-04-30 13:08 56.16393 12.06042 37008 ft 443 kts 180°
2026-04-30 13:09 56.10249 12.06056 37009 ft 440 kts 180°
2026-04-30 13:09 56.04499 12.06064 37009 ft 439 kts 180°
2026-04-30 13:09 56.01463 12.06071 37623 ft 443 kts 180°
2026-04-30 13:10 55.98359 12.06080 37459 ft 451 kts 180°
2026-04-30 13:10 55.92015 12.06100 37475 ft 457 kts 179°
2026-04-30 13:11 55.85649 12.06121 37470 ft 458 kts 179°
2026-04-30 13:11 55.79277 12.06139 37464 ft 458 kts 179°
2026-04-30 13:12 55.72905 12.06157 37469 ft 458 kts 179°
2026-04-30 13:12 55.66531 12.06175 37476 ft 459 kts 179°
2026-04-30 13:13 55.56962 12.06203 37471 ft 459 kts 179°
2026-04-30 13:14 55.47369 12.06232 37480 ft 460 kts 179°
2026-04-30 13:14 55.37770 12.06262 37481 ft 460 kts 179°
2026-04-30 13:15 55.28149 12.06288 37482 ft 460 kts 179°
2026-04-30 13:16 55.21771 12.06306 37482 ft 460 kts 179°
2026-04-30 13:16 55.15374 12.06312 37482 ft 459 kts 179°
2026-04-30 13:17 55.05801 12.06353 37463 ft 458 kts 179°
2026-04-30 13:18 54.96270 12.06377 37472 ft 459 kts 179°
2026-04-30 13:18 54.86721 12.06392 37474 ft 460 kts 179°
2026-04-30 13:19 54.80289 12.06410 37469 ft 460 kts 179°
2026-04-30 13:19 54.73877 12.06427 37473 ft 461 kts 179°
2026-04-30 13:20 54.67460 12.06448 37479 ft 461 kts 179°
2026-04-30 13:20 54.61059 12.06464 37478 ft 461 kts 179°
2026-04-30 13:21 54.54657 12.06482 37488 ft 462 kts 179°
2026-04-30 13:22 54.45000 12.06415 37490 ft 462 kts 180°
2026-04-30 13:22 54.35356 12.05702 37495 ft 462 kts 181°
2026-04-30 13:23 54.25722 12.04978 37499 ft 462 kts 181°
2026-04-30 13:24 54.12845 12.04201 37502 ft 463 kts 181°
2026-04-30 13:25 53.99948 12.03380 37499 ft 464 kts 181°
2026-04-30 13:26 53.83838 12.02355 37493 ft 464 kts 181°
2026-04-30 13:28 53.67707 12.01345 37493 ft 464 kts 181°
2026-04-30 13:28 53.58020 12.00733 37504 ft 465 kts 180°
2026-04-30 13:29 53.45059 11.99941 37482 ft 467 kts 180°
2026-04-30 13:31 53.28852 11.98960 37480 ft 468 kts 180°
2026-04-30 13:32 53.13650 11.98018 37489 ft 468 kts 180°
2026-04-30 13:33 53.00602 11.97236 37480 ft 468 kts 180°
2026-04-30 13:34 52.90839 11.96649 37478 ft 469 kts 180°
2026-04-30 13:35 52.77818 11.95867 37470 ft 469 kts 180°
2026-04-30 13:36 52.64811 11.95086 37482 ft 469 kts 180°
2026-04-30 13:36 52.55040 11.94510 37480 ft 469 kts 180°
2026-04-30 13:37 52.45283 11.93933 37477 ft 469 kts 180°
2026-04-30 13:38 52.35534 11.93355 37478 ft 469 kts 179°
2026-04-30 13:39 52.22439 11.92596 37498 ft 470 kts 179°
2026-04-30 13:40 52.12644 11.92017 37474 ft 472 kts 179°
2026-04-30 13:40 52.06037 11.91630 37472 ft 473 kts 179°
2026-04-30 13:41 51.99502 11.91256 37477 ft 474 kts 179°
2026-04-30 13:41 51.92927 11.90887 37487 ft 474 kts 179°
2026-04-30 13:42 51.86310 11.90508 37493 ft 475 kts 179°
2026-04-30 13:42 51.76370 11.89932 37488 ft 475 kts 179°
2026-04-30 13:43 51.69805 11.89553 37489 ft 475 kts 179°
2026-04-30 13:43 51.63152 11.89187 37489 ft 475 kts 179°
2026-04-30 13:44 51.56578 11.88809 37489 ft 475 kts 179°
2026-04-30 13:44 51.49945 11.88426 37489 ft 475 kts 179°
2026-04-30 13:45 51.40085 11.87864 37488 ft 475 kts 179°
2026-04-30 13:46 51.33467 11.87503 37484 ft 475 kts 179°
2026-04-30 13:46 51.26883 11.87139 37480 ft 475 kts 179°
2026-04-30 13:47 51.20267 11.87041 37469 ft 469 kts 168°
2026-04-30 13:47 51.17137 11.87925 37125 ft 462 kts 164°
2026-04-30 13:47 51.13995 11.88903 36639 ft 460 kts 164°
2026-04-30 13:47 51.10825 11.89908 36108 ft 459 kts 163°
2026-04-30 13:48 51.07690 11.90909 35578 ft 459 kts 163°
2026-04-30 13:48 51.04546 11.91911 35046 ft 459 kts 163°
2026-04-30 13:48 51.01431 11.92903 34592 ft 458 kts 162°
2026-04-30 13:48 50.98291 11.93898 34403 ft 458 kts 162°
2026-04-30 13:49 50.95174 11.94879 34465 ft 460 kts 162°
2026-04-30 13:49 50.88882 11.96848 34454 ft 460 kts 162°
2026-04-30 13:50 50.82644 11.98772 34243 ft 448 kts 162°
2026-04-30 13:50 50.76819 12.00564 33858 ft 430 kts 162°
2026-04-30 13:50 50.73973 12.01445 33666 ft 422 kts 162°
2026-04-30 13:51 50.71106 12.02336 33482 ft 415 kts 161°
2026-04-30 13:51 50.68306 12.03212 33300 ft 412 kts 161°
2026-04-30 13:51 50.65479 12.04099 33104 ft 411 kts 161°
2026-04-30 13:51 50.62681 12.04971 32919 ft 411 kts 161°
2026-04-30 13:52 50.59876 12.05836 32750 ft 411 kts 161°
2026-04-30 13:52 50.57108 12.06685 32545 ft 411 kts 161°
2026-04-30 13:52 50.54270 12.07554 32371 ft 411 kts 161°
2026-04-30 13:52 50.51490 12.08407 32201 ft 411 kts 161°
2026-04-30 13:53 50.48664 12.09273 32010 ft 411 kts 161°
2026-04-30 13:53 50.45873 12.10127 31835 ft 412 kts 161°
2026-04-30 13:53 50.43043 12.10991 31698 ft 412 kts 161°
2026-04-30 13:53 50.40184 12.11863 31498 ft 413 kts 161°
2026-04-30 13:54 50.37429 12.12703 31336 ft 414 kts 161°
2026-04-30 13:54 50.34548 12.13579 31167 ft 414 kts 161°
2026-04-30 13:54 50.31714 12.14440 30983 ft 414 kts 161°
2026-04-30 13:54 50.28883 12.15300 30813 ft 415 kts 161°
2026-04-30 13:55 50.26081 12.16153 30656 ft 415 kts 161°
2026-04-30 13:55 50.23247 12.17014 30477 ft 415 kts 161°
2026-04-30 13:55 50.20417 12.17874 30284 ft 415 kts 161°
2026-04-30 13:55 50.17551 12.18746 30084 ft 415 kts 161°
2026-04-30 13:56 50.14745 12.19599 29885 ft 415 kts 161°
2026-04-30 13:56 50.11902 12.20460 29684 ft 415 kts 161°
2026-04-30 13:56 50.09063 12.21319 29505 ft 416 kts 161°
2026-04-30 13:56 50.06195 12.22183 29286 ft 416 kts 162°
2026-04-30 13:57 50.03346 12.23037 29095 ft 417 kts 162°
2026-04-30 13:57 50.00499 12.23886 28909 ft 417 kts 162°
2026-04-30 13:57 49.97648 12.24735 28715 ft 417 kts 162°
2026-04-30 13:57 49.94837 12.25577 28527 ft 417 kts 162°
2026-04-30 13:58 49.91980 12.26439 28357 ft 417 kts 162°
2026-04-30 13:58 49.86268 12.28151 28018 ft 418 kts 162°
2026-04-30 13:58 49.83407 12.29005 27842 ft 419 kts 162°
2026-04-30 13:59 49.80547 12.29850 27692 ft 420 kts 164°
2026-04-30 13:59 49.77606 12.30070 27502 ft 427 kts 180°
2026-04-30 13:59 49.74748 12.29245 27125 ft 429 kts 189°
2026-04-30 13:59 49.71856 12.28185 27025 ft 419 kts 189°
2026-04-30 14:00 49.69063 12.27130 26925 ft 408 kts 189°
2026-04-30 14:00 49.63718 12.25103 26734 ft 387 kts 189°
2026-04-30 14:00 49.61104 12.24135 26649 ft 388 kts 188°
2026-04-30 14:01 49.58505 12.23187 26573 ft 388 kts 188°
2026-04-30 14:01 49.55860 12.22233 26307 ft 390 kts 188°
2026-04-30 14:01 49.53171 12.21268 25511 ft 401 kts 189°
2026-04-30 14:01 49.50503 12.20305 25038 ft 403 kts 189°
2026-04-30 14:02 49.47784 12.19313 24635 ft 401 kts 190°
2026-04-30 14:02 49.45084 12.18317 24279 ft 399 kts 190°
2026-04-30 14:02 49.42377 12.17317 23887 ft 397 kts 190°
2026-04-30 14:02 49.39701 12.16333 23436 ft 394 kts 190°
2026-04-30 14:03 49.37060 12.15365 23044 ft 391 kts 190°
2026-04-30 14:03 49.34405 12.14400 22652 ft 388 kts 190°
2026-04-30 14:03 49.31797 12.13457 22280 ft 385 kts 190°
2026-04-30 14:03 49.29245 12.12533 21912 ft 382 kts 190°
2026-04-30 14:04 49.26750 12.11634 21544 ft 379 kts 190°
2026-04-30 14:04 49.24163 12.10700 21162 ft 376 kts 190°
2026-04-30 14:04 49.21642 12.09791 20784 ft 374 kts 190°
2026-04-30 14:04 49.19126 12.08891 20416 ft 371 kts 190°
2026-04-30 14:05 49.16627 12.07996 20058 ft 368 kts 190°
2026-04-30 14:05 49.14140 12.07098 19703 ft 366 kts 190°
2026-04-30 14:05 49.11670 12.06209 19363 ft 363 kts 190°
2026-04-30 14:05 49.09214 12.05326 19035 ft 361 kts 191°
2026-04-30 14:06 49.06772 12.04445 18707 ft 358 kts 191°
2026-04-30 14:06 49.02277 12.02822 18139 ft 355 kts 191°
2026-04-30 14:07 48.97785 12.01209 17633 ft 352 kts 191°
2026-04-30 14:07 48.95446 12.00374 17348 ft 350 kts 191°
2026-04-30 14:07 48.93063 11.99526 16904 ft 350 kts 191°
2026-04-30 14:08 48.88339 11.97848 16039 ft 349 kts 191°
2026-04-30 14:08 48.85951 11.96996 15614 ft 349 kts 191°
2026-04-30 14:08 48.81255 11.95320 14767 ft 339 kts 191°
2026-04-30 14:09 48.78978 11.94513 14364 ft 334 kts 191°
2026-04-30 14:09 48.76781 11.93732 13944 ft 327 kts 190°
2026-04-30 14:09 48.72461 11.92202 13053 ft 320 kts 190°
2026-04-30 14:10 48.70293 11.91437 12614 ft 319 kts 190°
2026-04-30 14:10 48.68163 11.90688 12192 ft 320 kts 190°
2026-04-30 14:10 48.65986 11.89923 11761 ft 321 kts 191°
2026-04-30 14:10 48.63866 11.89177 11424 ft 319 kts 191°
2026-04-30 14:11 48.61743 11.88428 11362 ft 308 kts 189°
2026-04-30 14:11 48.59740 11.87719 11373 ft 307 kts 190°
2026-04-30 14:11 48.57792 11.87033 11355 ft 308 kts 189°
2026-04-30 14:11 48.55750 11.86320 11113 ft 303 kts 190°
2026-04-30 14:12 48.53693 11.85594 10864 ft 298 kts 189°
2026-04-30 14:12 48.51731 11.84905 10629 ft 296 kts 190°
2026-04-30 14:12 48.49738 11.84194 10374 ft 293 kts 193°
2026-04-30 14:12 48.48500 11.83435 10208 ft 296 kts 209°
2026-04-30 14:13 48.46697 11.80562 9814 ft 299 kts 243°
2026-04-30 14:13 48.46146 11.77698 9525 ft 300 kts 262°
2026-04-30 14:13 48.45966 11.75589 9305 ft 300 kts 264°
2026-04-30 14:13 48.45744 11.72454 8980 ft 299 kts 264°
2026-04-30 14:14 48.45533 11.69338 8660 ft 299 kts 264°
2026-04-30 14:14 48.45354 11.66608 8422 ft 292 kts 264°
2026-04-30 14:14 48.45175 11.63844 8339 ft 290 kts 264°
2026-04-30 14:14 48.45037 11.61662 8351 ft 291 kts 264°
2026-04-30 14:15 48.44924 11.59707 8356 ft 289 kts 268°
2026-04-30 14:15 48.44838 11.57118 8353 ft 294 kts 265°
2026-04-30 14:15 48.44655 11.53975 8350 ft 294 kts 264°
2026-04-30 14:15 48.44490 11.51297 8348 ft 290 kts 264°
2026-04-30 14:16 48.44389 11.49691 8352 ft 293 kts 264°
2026-04-30 14:16 48.44238 11.47782 8363 ft 298 kts 264°
2026-04-30 14:16 48.44051 11.45210 8161 ft 297 kts 264°
2026-04-30 14:16 48.43879 11.42589 8043 ft 289 kts 264°
2026-04-30 14:17 48.43777 11.41030 8018 ft 275 kts 265°
2026-04-30 14:17 48.43677 11.39406 8007 ft 265 kts 265°
2026-04-30 14:17 48.43597 11.37925 7979 ft 259 kts 265°
2026-04-30 14:17 48.43514 11.36221 7935 ft 254 kts 266°
2026-04-30 14:18 48.43439 11.34541 7910 ft 252 kts 266°
2026-04-30 14:18 48.43365 11.32772 7896 ft 241 kts 266°
2026-04-30 14:18 48.43097 11.28740 7735 ft 218 kts 252°
2026-04-30 14:19 48.41341 11.25825 6505 ft 251 kts 203°
2026-04-30 14:19 48.39835 11.25399 6095 ft 256 kts 176°
2026-04-30 14:19 48.38488 11.25975 5817 ft 258 kts 150°
2026-04-30 14:20 48.37388 11.27439 5489 ft 259 kts 126°
2026-04-30 14:20 48.36640 11.29618 5153 ft 260 kts 108°